Zurück zum Katalog

FENGYUN 1C DEB

AktivSSO
NORAD 30078·DEBRIS·🇨🇳 China

Gestartet May 10, 1999 von Taiyuan Satellite Launch Center

Loading…

Nächste Überflüge (nächste 24 Stunden)

TLE

AktuellSource: Space-Track

Epoche: Sep 14, 2026, 11:27 UTC

1 30078U 99025QF  26257.47722942  .00002670  00000-0  11466-2 0  9997
2 30078  98.8188 338.4354 0050409 201.2312 172.0799 14.24910071 10387

Verfolge FENGYUN 1C DEB in Echtzeit mit AllMySat

Download on the App Store